Location: Fort Worth, Tx
(32.7431°N, 97.3695°W)
Time: 14:37:06
(UTC-04:00)

Transit 2A - Pass Details

Date: 22 February 2024
Orbit: 596 x 956 km, 66.7° (Epoch: 20 April)

Event Time Altitude Azimuth Distance (km) Brightness Sun altitude
Rises 06:49:46 0° 339° (NNW) 3,055 8.9 -16.7°
Reaches altitude 10° 06:52:02 10° 343° (NNW) 2,186 8.2 -16.2°
Maximum altitude 06:56:58 58° 63° (ENE) 886 6.6 -15.2°
Drops below altitude 10° 07:02:24 10° 142° (SE) 2,414 9.2 -14.0°
Sets 07:05:01 0° 146° (SE) 3,402 9.9 -13.5°
